This demonstration page uses our WeatherBlox Daily Observations layout. Learn more.

Left ArrowRight Arrow

44.89941, -97.11507

Hourly Observations for June 3, 2016

Temp ( °F °C ) Dew Point ( °F °C ) Humidity (%) Winds ( mph kmh ) Pressure ( in mb ) Visibility ( mi km ) Precip ( " mm )
12:53 am 00:53 Clear with Nearby Thunderstorms 66 18.9 49 9.4 54 54 SE 8 13 29.87 1012 10 16 0.00 0.00
1:03 am 01:03 Partly Cloudy with Thunderstorms 66 18.9 49 9.4 54 54 SSE 7 11 29.88 1012 10 16 0.00 0.00
1:20 am 01:20 Mostly Cloudy with Strong Thunderstorms 62 16.7 57 13.9 84 84 W 18 30 29.94 1014 2 3 0.21 5.33
1:27 am 01:27 Cloudy with Strong Thunderstorms 62 16.7 57 13.9 84 84 NW 16 26 29.94 1014 1 2 0.40 10.16
1:31 am 01:31 Cloudy with Strong Thunderstorms 62 16.7 58 14.4 86 86 NW 21 33 29.91 1013 2 2 0.42 10.67
1:34 am 01:34 Cloudy with Thunderstorms 62 16.7 58 14.4 86 86 NW 15 24 29.91 1013 3 5 0.43 10.92
1:53 am 01:53 Cloudy with Thunderstorms 62 16.7 58 14.4 86 86 NW 13 20 29.93 1013 6 10 0.51 12.95
1:59 am 01:59 Cloudy with Rain 62 16.7 58 14.4 86 86 WNW 13 20 29.91 1013 6 10 0.02 0.51
2:53 am 02:53 Cloudy with Light Rain 62 16.7 59 15 90 90 ESE 10 17 29.83 1010 10 16 0.12 3.05
3:53 am 03:53 Clear 61 16.1 59 15 93 93 S 14 22 29.85 1011 10 16 0.00 0.03
4:53 am 04:53 Cloudy with Light Rain 63 17.2 57 13.9 81 81 WSW 20 31 29.84 1011 10 16 0.00 0.03
5:00 am 05:00 Cloudy with Light Rain 63 17.2 57 13.9 81 81 SW 18 30 29.83 1010 10 16 0.01 0.25
5:53 am 05:53 Cloudy with Light Rain 63 17.2 56 13.3 78 78 S 16 26 29.83 1010 10 16 0.12 3.05
6:53 am 06:53 Cloudy with Rain 63 17.2 57 13.9 81 81 S 21 33 29.80 1009 9 14 0.08 2.03
7:53 am 07:53 Mostly Cloudy 63 17.2 56 13.3 78 78 S 7 11 29.85 1011 10 16 0.02 0.51
8:53 am 08:53 Partly Cloudy 63 17.2 57 13.9 81 81 SSW 10 17 29.86 1011 10 16 0.00 0.03
9:53 am 09:53 Cloudy 63 17.2 59 15 87 87 W 14 22 29.89 1012 10 16 0.00 0.03
10:53 am 10:53 Cloudy 64 17.8 58 14.4 81 81 W 8 13 29.87 1011 10 16 0.00 0.00
11:53 am 11:53 Mostly Sunny 66 18.9 59 15 78 78 W 8 13 29.86 1011 10 16 0.01 0.25
12:53 pm 12:53 Partly Cloudy 70 21.1 59 15 68 68 WNW 10 17 29.88 1012 10 16 0.00 0.00
1:53 pm 13:53 Sunny 74 23.3 57 13.9 56 56 WNW 10 17 29.86 1011 10 16 0.00 0.00
2:53 pm 14:53 Sunny 75 23.9 57 13.9 54 54 W 9 15 29.84 1011 10 16 0.00 0.00
3:53 pm 15:53 Mostly Cloudy 71 21.7 54 12.2 55 55 NW 31 50 29.90 1013 10 16 0.00 0.00
4:00 pm 16:00 Windy with Storms Likely 61 16.1 51 10.6 70 70 NNW 25 41 29.88 1012 6 10 0.02 0.51
4:34 pm 16:34 Cloudy with Nearby Thunderstorms 58 14.4 52 11.1 81 81 NW 14 22 29.94 1014 10 16 0.12 3.05
4:53 pm 16:53 Cloudy with Nearby Thunderstorms 59 15 52 11.1 78 78 NW 8 13 29.91 1013 10 16 0.12 3.05
5:08 pm 17:08 Cloudy with Light Rain 60 15.6 53 11.7 78 78 NNW 6 9 29.88 1012 10 16 0.00 0.03
5:53 pm 17:53 Cloudy 60 15.6 54 12.2 80 80 E 6 9 29.88 1012 10 16 0.02 0.51
6:53 pm 18:53 Sunny 64 17.8 55 12.8 73 73 Calm 29.83 1010 10 16 0.00 0.00
7:53 pm 19:53 Sunny 66 18.9 55 12.8 68 68 W 7 11 29.86 1011 10 16 0.00 0.00
8:53 pm 20:53 Mostly Cloudy 64 17.8 54 12.2 70 70 W 8 13 29.87 1012 10 16 0.00 0.00
9:53 pm 21:53 Mostly Cloudy 61 16.1 53 11.7 75 75 WSW 6 9 29.88 1012 10 16 0.00 0.03
10:53 pm 22:53 Cloudy 62 16.7 52 11.1 70 70 NW 5 7 29.89 1012 10 16 0.00 0.00
11:53 pm 23:53 Cloudy 61 16.1 52 11.1 72 72 WNW 9 15 29.89 1012 10 16 0.00 0.00

Powered by AerisWeather